• In India
  • List of Countries
  • For 7 days
  • Water Temperature
  • Satellite Maps
  • Weather Map
  • Weather Widgets
  • user-avatar
    Login

    Hourly Weather Siepraw

    Today, 23 November, Thursday

    Time Temperature Precipitation Wind Pressure Humidity
    00:00 +3°C° 0 mm 2 mps 731 mmHg 88%
    01:00 +3°C° 0 mm 2 mps 731 mmHg 88%
    02:00 +3°C° 0 mm 2 mps 731 mmHg 87%
    03:00 +3°C° 0 mm 2 mps 731 mmHg 87%
    04:00 +3°C° 0 mm 2 mps 731 mmHg 87%
    05:00 +3°C° 0 mm 2 mps 731 mmHg 86%
    06:00 +3°C° 0 mm 2 mps 731 mmHg 86%
    07:00 +2°C° 0 mm 2 mps 731 mmHg 86%
    08:00 +4°C° 0 mm 2 mps 731 mmHg 81%
    09:00 +5°C° 0 mm 2 mps 732 mmHg 77%
    10:00 +7°C° 0 mm 2 mps 732 mmHg 73%
    11:00 +8°C° 0 mm 2 mps 732 mmHg 71%
    12:00 +9°C° 0 mm 2 mps 732 mmHg 69%
    13:00 +11°C° 0 mm 1 mps 731 mmHg 69%
    14:00 +10°C° 0 mm 1 mps 731 mmHg 74%
    15:00 +7°C° 0 mm 2 mps 731 mmHg 78%
    16:00 +6°C° 0 mm 2 mps 731 mmHg 83%
    17:00 +6°C° 0 mm 2 mps 731 mmHg 83%
    18:00 +5°C° 0 mm 2 mps 732 mmHg 84%
    19:00 +4°C° 0 mm 2 mps 732 mmHg 85%
    20:00 +4°C° 0 mm 2 mps 732 mmHg 85%
    21:00 +3°C° 0 mm 3 mps 732 mmHg 84%
    22:00 +3°C° 0 mm 3 mps 732 mmHg 84%
    23:00 +4°C° 0 mm 2 mps 733 mmHg 85%

    Tomorrow, 24 November, Friday

    Time Temperature Precipitation Wind Pressure Humidity
    00:00 +4°C° 0 mm 2 mps 733 mmHg 86%
    01:00 +4°C° 0 mm 2 mps 733 mmHg 87%
    02:00 +4°C° 0 mm 2 mps 733 mmHg 87%
    03:00 +4°C° 0 mm 2 mps 733 mmHg 88%
    04:00 +3°C° 0 mm 2 mps 733 mmHg 88%
    05:00 +4°C° 0 mm 2 mps 733 mmHg 88%
    06:00 +4°C° 0 mm 2 mps 733 mmHg 87%
    07:00 +4°C° 0 mm 2 mps 733 mmHg 87%
    08:00 +5°C° 0 mm 2 mps 733 mmHg 83%
    09:00 +6°C° 0 mm 2 mps 733 mmHg 79%
    10:00 +8°C° 0 mm 2 mps 733 mmHg 74%
    11:00 +9°C° 0 mm 2 mps 733 mmHg 72%
    12:00 +10°C° 0 mm 2 mps 733 mmHg 71%
    13:00 +12°C° 0 mm 2 mps 733 mmHg 69%
    14:00 +10°C° 0 mm 2 mps 733 mmHg 74%
    15:00 +9°C° 0 mm 2 mps 733 mmHg 79%
    16:00 +7°C° 0 mm 2 mps 733 mmHg 83%
    17:00 +7°C° 0 mm 2 mps 733 mmHg 84%
    18:00 +6°C° 0 mm 2 mps 733 mmHg 85%
    19:00 +6°C° 0 mm 2 mps 733 mmHg 86%
    20:00 +6°C° 0 mm 2 mps 733 mmHg 86%
    21:00 +6°C° 0 mm 2 mps 733 mmHg 85%
    22:00 +6°C° 0 mm 2 mps 733 mmHg 85%
    23:00 +5°C° 0 mm 2 mps 733 mmHg 85%

    Day after tomorrow, 25 November, Saturday

    Time Temperature Precipitation Wind Pressure Humidity
    00:00 +5°C° 0 mm 2 mps 733 mmHg 85%
    01:00 +5°C° 0 mm 2 mps 733 mmHg 84%
    02:00 +5°C° 0 mm 2 mps 732 mmHg 85%
    03:00 +5°C° 0 mm 2 mps 732 mmHg 86%
    04:00 +6°C° 0 mm 1 mps 732 mmHg 86%
    05:00 +4°C° 0 mm 2 mps 732 mmHg 86%
    06:00 +4°C° 0 mm 2 mps 731 mmHg 87%
    07:00 +4°C° 0 mm 2 mps 731 mmHg 87%
    08:00 +4°C° 0 mm 3 mps 731 mmHg 83%
    09:00 +5°C° 0 mm 3 mps 730 mmHg 79%
    10:00 +8°C° 0 mm 3 mps 730 mmHg 75%
    11:00 +7°C° 0 mm 4 mps 729 mmHg 72%
    12:00 +8°C° 0 mm 4 mps 728 mmHg 70%
    13:00 +9°C° 0 mm 5 mps 728 mmHg 67%
    14:00 +8°C° 0 mm 4 mps 727 mmHg 71%
    15:00 +8°C° 0 mm 4 mps 727 mmHg 74%
    16:00 +8°C° 0 mm 3 mps 727 mmHg 77%
    17:00 +8°C° 0.2 mm 3 mps 726 mmHg 79%
    18:00 +8°C° 0.2 mm 3 mps 726 mmHg 80%
    19:00 +8°C° 0.2 mm 3 mps 726 mmHg 81%
    20:00 +7°C° 0.1 mm 4 mps 726 mmHg 82%
    21:00 +7°C° 0.1 mm 4 mps 727 mmHg 82%
    22:00 +7°C° 0.1 mm 4 mps 727 mmHg 82%
    23:00 +6°C° 0.2 mm 4 mps 727 mmHg 84%

    26 November, Sunday

    Time Temperature Precipitation Wind Pressure Humidity
    00:00 +6°C° 0.2 mm 4 mps 728 mmHg 85%
    01:00 +5°C° 0.2 mm 3 mps 728 mmHg 87%
    02:00 +5°C° 0.5 mm 4 mps 728 mmHg 86%
    03:00 +4°C° 0.5 mm 4 mps 729 mmHg 85%
    04:00 +4°C° 0.5 mm 4 mps 729 mmHg 84%
    05:00 +3°C° 0.7 mm 4 mps 730 mmHg 85%
    06:00 +3°C° 0.7 mm 3 mps 730 mmHg 85%
    07:00 +3°C° 0.7 mm 3 mps 731 mmHg 86%
    08:00 +3°C° 0.5 mm 3 mps 731 mmHg 85%
    09:00 +3°C° 0.5 mm 3 mps 732 mmHg 84%
    10:00 +3°C° 0.5 mm 4 mps 732 mmHg 83%
    11:00 +3°C° 0.2 mm 3 mps 733 mmHg 82%
    12:00 +3°C° 0.2 mm 3 mps 733 mmHg 80%
    13:00 +3°C° 0.2 mm 3 mps 733 mmHg 78%
    14:00 +3°C° 0.1 mm 3 mps 734 mmHg 80%
    15:00 +2°C° 0.1 mm 3 mps 734 mmHg 81%
    16:00 +3°C° 0.1 mm 2 mps 734 mmHg 82%
    17:00 +2°C° 0 mm 2 mps 734 mmHg 84%
    18:00 +2°C° 0 mm 2 mps 735 mmHg 85%
    19:00 +1°C° 0 mm 2 mps 735 mmHg 86%
    20:00 +1°C° 0 mm 2 mps 735 mmHg 87%
    21:00 -1°C° 0 mm 2 mps 736 mmHg 88%
    22:00 -1°C° 0 mm 2 mps 736 mmHg 89%
    23:00 -1°C° 0 mm 2 mps 736 mmHg 89%

    27 November, Monday

    Time Temperature Precipitation Wind Pressure Humidity
    00:00 -2°C° 0 mm 2 mps 736 mmHg 89%
    01:00 -2°C° 0 mm 2 mps 736 mmHg 89%
    02:00 -2°C° 0 mm 2 mps 736 mmHg 89%
    03:00 -2°C° 0 mm 2 mps 736 mmHg 89%
    04:00 -3°C° 0 mm 2 mps 736 mmHg 89%
    05:00 -3°C° 0 mm 2 mps 737 mmHg 89%
    06:00 -3°C° 0 mm 2 mps 737 mmHg 88%
    07:00 -3°C° 0 mm 2 mps 737 mmHg 88%
    08:00 -2°C° 0 mm 2 mps 737 mmHg 83%
    09:00 -1°C° 0 mm 2 mps 737 mmHg 78%
    10:00 +1°C° 0 mm 2 mps 737 mmHg 73%
    11:00 +2°C° 0 mm 2 mps 737 mmHg 71%
    12:00 +2°C° 0 mm 2 mps 737 mmHg 69%
    13:00 +3°C° 0 mm 2 mps 736 mmHg 67%
    14:00 +2°C° 0 mm 2 mps 736 mmHg 71%
    15:00 +1°C° 0 mm 2 mps 736 mmHg 75%
    16:00 +1°C° 0 mm 1 mps 736 mmHg 79%
    17:00 +1°C° 0 mm 1 mps 736 mmHg 80%
    18:00 0°C° 0 mm 1 mps 736 mmHg 81%
    19:00 0°C° 0 mm 1 mps 736 mmHg 82%
    20:00 0°C° 0 mm 1 mps 736 mmHg 82%
    21:00 0°C° 0 mm 1 mps 736 mmHg 82%
    22:00 -1°C° 0 mm 1 mps 736 mmHg 82%
    23:00 -1°C° 0 mm 1 mps 736 mmHg 82%

    28 November, Tuesday

    Time Temperature Precipitation Wind Pressure Humidity
    00:00 -1°C° 0 mm 1 mps 736 mmHg 82%
    01:00 -1°C° 0 mm 1 mps 735 mmHg 82%
    02:00 -1°C° 0 mm 1 mps 735 mmHg 81%
    03:00 -1°C° 0 mm 1 mps 735 mmHg 81%
    04:00 -1°C° 0 mm 1 mps 735 mmHg 81%
    05:00 -1°C° 0 mm 1 mps 735 mmHg 80%
    06:00 -1°C° 0 mm 1 mps 735 mmHg 79%
    07:00 -2°C° 0 mm 1 mps 735 mmHg 78%
    08:00 -2°C° 0 mm 2 mps 734 mmHg 74%
    09:00 -1°C° 0 mm 2 mps 734 mmHg 69%
    10:00 +1°C° 0 mm 2 mps 734 mmHg 65%
    11:00 +2°C° 0 mm 2 mps 734 mmHg 62%
    12:00 +2°C° 0 mm 2 mps 734 mmHg 60%
    13:00 +3°C° 0 mm 2 mps 733 mmHg 58%
    14:00 +2°C° 0 mm 2 mps 733 mmHg 63%
    15:00 +1°C° 0 mm 2 mps 733 mmHg 69%
    16:00 -1°C° 0 mm 2 mps 732 mmHg 75%
    17:00 -2°C° 0 mm 2 mps 732 mmHg 76%
    18:00 -2°C° 0 mm 2 mps 732 mmHg 78%
    19:00 -2°C° 0 mm 2 mps 732 mmHg 79%
    20:00 -2°C° 0 mm 2 mps 732 mmHg 78%
    21:00 -3°C° 0 mm 2 mps 732 mmHg 77%
    22:00 -3°C° 0 mm 2 mps 732 mmHg 76%
    23:00 -3°C° 0 mm 2 mps 731 mmHg 75%
    Show more